{"data":{"norad_id":48358,"intl_designator":"2021-038F","name":"STARLINK-2624","alt_names":[],"object_type":"PAYLOAD","status":"ACTIVE","operator":null,"country":"US","launch_date":"2021-05-04","launch_site_code":"AFETR","launch_vehicle":null,"mission":null,"orbit_class":"UNKNOWN","rcs_meters":null,"size_class":null,"mass_kg":null,"dimensions":null,"purposes":["comms"],"wikipedia_slug":null,"has_3d_model":false,"image_url":null,"decayed_at":null,"tle_current":{"epoch":"2026-09-19T06:12:06.831360Z","epoch_age_seconds":140920,"freshness":"FRESH","line1":"1 48358U 21038F   26262.25841240  .00000909  00000+0  41038-4 0  9993","line2":"2 48358  53.1626 177.2915 0001616  83.9579 276.1606 15.31709154296731","mean_motion":15.31709154,"eccentricity":0.0001616,"inclination_deg":53.1626,"raan_deg":177.2915,"arg_perigee_deg":83.9579,"mean_anomaly_deg":276.1606,"bstar":4.1038e-5,"rev_number":29673,"period_min":94.012626107215,"perigee_km":469.60593365111,"apogee_km":471.81948187666,"semimajor_km":6848.8497077639,"source":"CELESTRAK","updated_at":"2026-09-20T09:00:38.939633Z"}}}